Regional Weather Roundup
Issued by NWS Upton, NY

Current Version | Previous Version | Graphics & Text | Print | Product List | Glossary Off
Versions: 1 2 3 4 5 6 7 8 9 10 11 12 13 14 15 16 17 18 19 20 21 22 23 24 25 26 27 28

000
ASUS41 KOKX 260008
RWROKX

REGIONAL WEATHER ROUNDUP
NATIONAL WEATHER SERVICE NEW YORK NY
800 PM EDT MON SEP 25 2017

NOTE: "FAIR" INDICATES FEW OR NO CLOUDS BELOW 12,000 FEET WITH NO
SIGNIFICANT WEATHER AND/OR OBSTRUCTIONS TO VISIBILITY.

NYZ071-072-176-178-NJZ106-104-260100-
NEW YORK CITY METRO AREA

CITY           SKY/WX    TMP DP  RH WIND       PRES   REMARKS
Central Park   CLEAR     75  59  57 CALM      30.07R
Bronx Bot Gard   N/A    N/A N/A N/A E3        30.06R
LaGuardia APRT CLEAR     76  64  66 S9        30.03R
Kennedy INTL   PTCLDY    70  67  90 SE10      30.06R
Breezy Point     N/A     70 N/A N/A SE10        N/A
Newark/Liberty PTCLDY    74  64  71 SE6       30.04R
Teterboro      CLEAR     78  63  59 S9        30.02R
$$

NYZ177-179-078>081-260100-
LONG ISLAND NEW YORK

CITY           SKY/WX    TMP DP  RH WIND       PRES   REMARKS
Jones Beach      N/A     66 N/A N/A SE9         N/A
Matinecock PT    N/A     73 N/A N/A S2          N/A
Farmingdale    CLEAR     70  66  87 S9        30.05R
MacArthur/ISP  PTCLDY    69  67  93 S7        30.05R
Shirley        MOCLDY    70  68  93 SE6       30.06R
Mt Sinai Harb    N/A     70 N/A N/A S8          N/A
Westhampton    FOG       67  65  93 CALM      30.07R VSB 1/2
East Hampton   CLOUDY    65  64  99 CALM      30.05S FOG
Montauk          N/A     67  67 100 CALM      30.07R
$$

NYZ052-065-067-260100-
HUDSON VALLEY

CITY           SKY/WX    TMP DP  RH WIND       PRES   REMARKS
White Plains   CLEAR     72  64  76 SE5       30.05R
Larchmont Harb   N/A     73 N/A N/A E5          N/A
Croton On Huds   N/A     79 N/A N/A CALM        N/A
Newburgh       PTCLDY    79  70  73 VRB5      30.04R
Montgomery     CLEAR     74  71  91 CALM      30.03R
Poughkeepsie   PTCLDY    79  68  69 CALM      30.01R
Albany         PTCLDY    77  67  71 CALM      30.03R
$$

NJZ001-105-106-008-010-013-015-019>022-104-260100-
NEW JERSEY

CITY           SKY/WX    TMP DP  RH WIND       PRES   REMARKS
Newark/Liberty PTCLDY    74  64  71 SE6       30.04R
Teterboro      CLEAR     78  63  59 S9        30.02R
Caldwell       CLEAR     78  66  66 CALM      30.04R
Somerville     NOT AVBL
Linden         FAIR      73  65  76 S8        30.05R
Perth Amboy      N/A     73 N/A N/A SE10        N/A
Sussex         CLEAR     76  70  82 CALM      30.04R
Andover          N/A     73  70  90 CALM      30.05R
Trenton        PTCLDY    76  66  71 SE7       30.03R
Millville      CLEAR     72  68  87 E5        30.01F
Atlantic City  CLOUDY    70  68  93 E12       30.02F
Wrightstown    CLOUDY    70  63  77 E5        30.01S
Toms River     CLEAR     69  66  90 SE5       30.05S
Belmar         CLEAR     69  67  93 SE6       30.06R
$$

PAZ047>061-062-071-260100-
EASTERN PENNSYLVANIA

CITY           SKY/WX    TMP DP  RH WIND       PRES   REMARKS
Philadelphia   MOCLDY    78  65  63 SE8       30.02R
Allentown      PTCLDY    84  67  56 SE10      30.02R
Scranton       CLEAR     80  66  62 CALM      30.05R
$$

CTZ002-004>006-009-010-012-RIZ004-006-007-MAZ004-011-015-260100-
SOUTHERN NEW ENGLAND
 IN CT

CITY           SKY/WX    TMP DP  RH WIND       PRES   REMARKS
Bradley INTL   PTCLDY    79  68  69 S9        30.04R
Hartford       CLEAR     77  65  66 S7        30.04R
Danbury        CLEAR     76  64  66 CALM      30.06R
Wtrbury/Oxford CLEAR     72  62  71 S5        30.08R
Norwalk Harbor   N/A     72 N/A N/A SE3         N/A
Bridgeport     CLEAR     74  69  85 E6        30.04R
Meriden        CLEAR     73  61  65 CALM      30.05R
New Haven      PTCLDY    72  63  73 E6        30.05R
Chester        FAIR      68  64  88 CALM      30.07S
Groton         CLOUDY    68  67  96 CALM      30.05S FOG
Wilimantic     CLEAR     76  67  73 S5        30.06R

 IN RI

CITY           SKY/WX    TMP DP  RH WIND       PRES   REMARKS
Providence     PTCLDY    69  68  96 SW5       30.06R
Block Island   FOG       67  66  97 E6        30.07R VSB 3/4
Westerly       CLOUDY    69  68  96 CALM      30.06S FOG
 IN MA

CITY           SKY/WX    TMP DP  RH WIND       PRES   REMARKS
Boston         PTCLDY    68  66  93 E6        30.06R
Worcester      CLEAR     75  62  64 SE5       30.10R
Westfield      CLEAR     77  71  82 CALM      30.03R
Provincetown   FOG       64  63  94 CALM      30.06S VSB 3/4
Nantucket      CLOUDY    63  63 100 NE7       30.06S
$$

ANZ330-335-338-340-345-350-353-355-260100-
COASTAL MARINE OBSERVATIONS


STATION/POSITION TIME  SKY/WX   TEMP    WIND        PRES    VSBY  WAVE
                                AIR SEA DIR/SP/G                  HT/PER
                 (UTC)          (F)     (DEG/KT/KT) (MB)    (MI)  (FT/S)
NY HARB ENTRANCE 2250            70 72  130/ 12/ 14 1016.4          4/14
20 S FIRE ISLAND 2350            66 68  110/ 10/ 12 1017.4          5/11
GREAT SOUTH BAY  2330            68 74  140/  8/  8   N/A
23 SSW MONTAUK P 2350            64 64              1018.0          7/13
15 E BARNEGAT LI 2330               71                N/A           4/11
HUDSON CANYON    2250            67 69   60/ 10/ 10 1016.3          9/15
KINGS POINT      2330            74 73  200/  9/ 11 1017.7
EXECUTION ROCKS  2345            75     170/  4/  8   N/A
WESTERN LI SOUND NOT AVBL
CENTRAL LI SOUND 2300            73     100/  6/  8   N/A           0
EASTERN LI SOUND NOT AVBL
ROBBINS REEF     2330            72     160/ 18/ 20 1017.4
$$


>>>>>>>>>>>>>>>>>>>>>>>>>>>> KEY <<<<<<<<<<<<<<<<<<<<<<<<<<<
>                                                          <
>     SKY/WX - Sky Condition/Present Weather               <
>     TMP    - Temperature in Fahrenheit                   <
>     DP     - Dew Point in Fahrenheit                     <
>     RH     - Relative Humidity in Percent                <
>     WIND   - Direction (from) and Speed in MPH           <
>     PRES   - Mean Sea Level Pressure (inches of Hg)      <
>     WCI    - Wind Chill Index                            <
>     VSB    - VISIBILITY IN MILES                         <
>     HX     - HEAT INDEX                                  <
>     TC     - TEMPERATURE IN CELSIUS                      <
>     VRB    - VARIABLE WIND DIRECTION                     <
>                                                          <
>>>>>>>>>>>>>>>>>>>>>>>>>>>> KEY <<<<<<<<<<<<<<<<<<<<<<<<<<<




USA.gov is the U.S. government's official web portal to all federal, state and local government web resources and services.